Temperature
17 17 17 17 17 17 16 16 16 16 15 15 15 15 15 15 15 14 14 14 14 14 14 14 14 14 14 13 13 13 13 13 13 13 12 12 12 12 12 12 12 12 12
18 17 17 17 17 16 16 16 16 16 16 15 15 15 15 15 15 14 14 14 14 14 14 14 14 13 13 13 13 13 13 13 13 12 12 12 12 12 12 12 12 12 12
18 17 17 17 17 16 16 16 16 16 15 15 15 15 15 15 14 14 14 14 14 14 14 13 13 13 13 13 13 13 12 12 12 12 12 12 12 12 12 12 12 12 11
18 17 17 17 17 17 16 16 16 16 16 15 15 15 15 15 14 14 14 14 14 14 13 13 13 13 13 13 13 12 12 12 12 12 11 11 11 11 11 11 11 11 11
18 18 17 17 17 16 16 16 16 16 15 15 15 15 15 14 14 14 14 14 14 13 13 13 13 13 13 12 12 12 12 12 11 11 11 11 11 11 11 11 11 11 11
18 18 17 17 17 16 16 16 16 16 15 15 15 15 15 14 14 14 14 14 13 13 13 13 13 13 12 12 12 12 12 11 11 11 11 11 11 11 11 11 10 10 10
18 18 17 17 17 16 16 16 16 16 15 15 15 15 15 14 14 14 14 13 13 13 13 13 12 12 12 12 12 12 11 11 11 11 11 10 10 10 10 10 10 10 10
18 18 17 17 17 16 16 16 16 16 15 15 15 15 15 14 14 14 13 13 13 13 12 12 12 12 12 12 11 11 11 11 11 11 10 10 10 10 10 10 10 10 10
18 18 17 17 17 16 16 16 16 15 15 15 15 14 14 14 14 14 13 13 13 13 12 12 12 12 12 11 11 11 11 11 11 10 10 10 10 10 10 10 9 9 9
18 17 17 17 17 16 16 16 15 15 15 14 14 14 14 14 14 13 13 13 13 13 12 12 12 12 11 11 11 11 11 11 10 10 10 10 10 10 9 9 9 9 9
18 17 17 17 16 16 16 15 15 15 14 14 14 14 14 14 13 13 13 13 13 12 12 12 12 12 11 11 11 11 10 10 10 10 10 9 9 9 9 9 9 9 8
17 17 17 16 16 15 15 15 15 14 14 14 14 14 13 13 13 13 13 13 13 12 12 12 11 11 11 11 10 10 10 10 10 10 9 9 9 9 9 9 9 8 8
17 17 16 16 15 15 15 15 14 14 14 14 14 13 13 13 13 13 13 13 12 12 12 12 11 11 11 10 10 10 10 10 10 9 9 9 9 9 9 9 8 8 8
17 16 16 15 15 15 15 15 14 14 14 14 14 13 13 13 13 13 13 12 12 12 12 11 11 11 10 10 10 10 10 9 9 9 9 9 9 9 8 8 8 8 8
16 16 15 15 15 15 14 14 14 14 14 14 14 13 13 13 13 13 12 12 12 12 11 11 11 10 10 10 10 9 9 9 9 9 9 8 8 8 8 8 8 7 7
15 15 15 15 14 14 14 14 14 14 14 14 13 13 13 13 13 12 12 12 12 11 11 11 10 10 10 9 9 9 9 9 9 8 8 8 8 8 8 7 7 7 7
15 15 14 14 14 14 14 14 14 14 13 13 13 13 13 13 12 12 12 11 11 11 10 10 10 10 10 9 9 9 9 8 8 8 8 8 8 7 7 7 7 6 6
14 14 14 14 14 14 14 14 13 13 13 13 13 13 13 12 12 12 11 11 11 11 10 10 10 10 9 9 9 9 8 8 8 8 8 7 7 7 7 6 6 6 6
14 14 14 14 13 13 13 13 13 13 13 13 13 12 12 12 12 11 11 11 11 11 10 10 10 10 9 9 9 8 8 8 8 7 7 7 7 7 6 6 6 6 6
14 14 13 13 13 13 12 12 12 12 12 12 12 12 12 11 11 11 11 11 10 10 10 10 10 9 9 9 8 8 8 7 7 7 7 7 7 6 6 6 6 5 5
13 13 13 13 13 12 12 12 12 12 11 11 11 11 11 11 11 11 11 11 10 10 10 9 9 9 9 8 8 8 8 7 7 7 7 6 6 6 6 6 5 5 5
13 13 12 12 12 12 12 11 11 11 11 11 11 11 10 10 10 10 10 10 10 10 9 9 9 9 8 8 8 7 7 7 7 6 6 6 6 6 5 5 5 5 5
12 12 12 12 12 11 11 11 11 11 11 11 10 10 10 10 10 10 10 9 9 9 9 9 8 8 8 8 7 7 7 7 6 6 6 6 5 5 5 5 5 4 4
11 11 11 11 11 11 10 10 10 10 10 10 10 10 10 9 9 9 9 9 9 9 8 8 8 8 7 7 7 7 6 6 6 6 5 5 5 5 5 4 4 4 4
11 11 10 10 10 10 10 10 10 9 9 9 9 9 9 9 9 9 8 8 8 8 8 7 7 7 7 6 6 6 6 6 5 5 5 5 4 4 4 4 4 3 3
10 10 10 10 10 9 9 9 9 9 9 9 9 9 8 8 8 8 8 8 7 7 7 7 7 6 6 6 6 6 5 5 5 5 5 4 4 4 4 3 3 3 2
Wind_Speed
7 6 6 4 4 4 3 3 4 4 3 3 3 3 3 3 2 2 2 3 3 3 3 4 4 4 3 3 3 3 3 2 1 2 2 2 4 4 6 7 5 5 5
7 7 7 6 5 4 4 4 4 4 3 3 3 3 3 3 3 2 2 3 3 3 3 4 4 4 4 4 3 3 3 3 2 2 2 3 3 3 4 5 5 6 5
7 7 7 6 6 5 4 4 4 4 4 3 4 3 3 3 3 2 2 2 3 3 3 4 4 5 5 4 4 4 3 3 3 1 2 2 2 3 4 4 5 5 6
8 7 7 7 6 6 5 4 3 3 4 3 4 4 3 3 3 3 3 2 2 3 3 4 4 5 4 4 4 4 4 3 3 2 2 2 2 3 3 3 4 4 4
9 8 7 7 6 5 5 5 3 2 3 3 4 4 3 3 3 3 2 2 2 2 3 3 3 5 6 5 4 4 4 3 3 2 2 2 2 3 3 3 3 3 3
10 8 7 7 7 6 5 5 4 3 2 3 3 4 4 3 4 5 3 2 1 2 2 1 2 4 4 3 3 4 4 3 3 3 2 2 3 2 2 3 2 3 3
9 9 8 8 7 7 6 6 6 5 3 2 3 4 5 4 4 3 4 2 1 0 0 1 1 2 2 1 1 1 1 1 1 1 2 3 3 3 3 4 3 3 3
9 9 9 8 8 7 6 6 6 5 5 4 3 4 5 4 3 2 2 2 1 0 1 1 2 2 3 3 2 1 1 2 2 1 1 2 2 2 2 3 3 4 4
8 9 9 9 9 8 7 7 5 5 5 5 4 5 5 4 4 3 0 2 1 1 0 2 2 3 3 5 3 3 2 2 3 4 4 5 5 5 4 3 3 3 3
9 9 9 9 9 8 8 6 5 5 5 5 5 5 6 5 5 4 2 1 1 1 1 2 3 3 2 3 2 3 3 3 4 4 4 5 6 6 5 2 2 2 3
7 8 8 9 8 8 7 6 5 5 5 5 5 4 5 5 7 6 4 1 1 1 0 1 1 2 0 2 2 2 3 4 4 4 4 3 2 2 2 3 2 1 2
7 8 8 8 8 7 7 6 5 6 5 5 4 4 3 4 6 6 6 4 2 1 1 0 1 2 2 3 3 5 6 5 3 3 3 3 3 2 2 2 3 4 4
7 8 8 8 7 7 7 6 5 5 5 4 4 4 3 3 4 7 7 6 4 2 1 1 2 4 4 4 6 7 5 3 3 3 4 3 3 3 2 2 3 5 6
7 7 7 7 7 6 6 6 6 5 5 5 4 4 3 3 3 3 3 4 4 3 3 3 5 5 5 5 5 4 4 3 3 4 4 4 3 2 2 2 3 3 3
6 6 6 6 6 6 5 4 5 5 6 5 4 4 4 4 4 5 4 3 3 3 2 2 2 2 3 3 3 3 3 3 4 4 3 4 3 3 3 3 3 3 3
5 5 5 5 5 5 5 3 2 3 5 6 5 5 3 5 5 5 4 3 3 3 2 2 3 3 3 3 3 3 3 3 3 3 3 3 4 4 4 4 3 3 4
5 5 4 5 5 5 5 5 3 1 1 3 6 7 6 6 6 6 6 4 4 4 3 3 4 4 4 3 3 3 3 4 3 3 3 4 4 4 4 4 4 4 5
4 5 5 4 4 4 5 5 5 5 4 2 4 7 8 7 7 7 6 3 2 3 4 4 4 4 3 3 3 3 3 3 3 3 4 4 4 4 5 5 5 5 5
3 3 4 4 4 4 4 4 4 5 5 4 3 3 6 5 6 7 7 4 5 5 5 5 4 4 4 4 3 3 3 3 4 3 4 4 4 5 5 5 5 7 6
3 5 4 4 4 4 3 4 4 4 4 4 5 4 4 3 2 4 5 5 5 5 5 5 5 4 4 4 4 3 4 4 4 4 4 4 4 4 6 6 5 5 6
3 4 5 3 3 3 3 3 3 4 4 4 4 5 8 5 5 5 5 5 5 5 5 4 4 4 4 4 4 4 5 4 4 4 4 4 4 5 5 5 6 6 6
2 3 3 3 3 3 2 2 2 3 3 3 2 4 8 5 4 4 5 5 5 4 3 3 4 4 3 3 4 4 4 4 4 3 4 4 5 5 5 5 6 6 6
2 2 2 2 2 3 3 2 2 3 3 3 3 3 4 4 4 4 4 3 3 2 2 2 2 2 2 3 3 2 3 4 3 3 4 5 5 5 5 6 7 7 7
2 2 2 2 1 2 1 1 1 2 2 2 2 2 3 3 3 3 3 2 1 1 1 2 2 3 3 3 3 3 3 4 4 4 4 5 5 5 5 5 6 7 6
2 2 2 2 2 2 1 1 1 1 1 1 1 1 1 2 2 2 1 1 1 1 1 2 2 2 3 4 3 3 4 5 6 6 6 5 5 5 5 6 5 6 6
2 2 2 1 1 1 1 1 1 1 1 0 0 0 1 1 1 1 1 1 1 1 1 1 2 3 4 3 3 4 5 6 7 8 7 5 5 5 5 5 6 5 6
Wind_Direction
173 165 153 161 152 137 132 127 123 123 130 138 136 125 116 105 93 76 64 45 44 38 35 45 34 29 18 16 15 16 20 49 61 341 359 10 21 14 11 9 21 52 54
170 165 161 159 152 155 153 151 152 152 153 138 123 101 93 86 80 77 63 60 53 44 34 39 33 36 27 17 15 17 17 30 55 2 346 8 17 14 4 359 17 29 33
166 164 157 158 162 161 157 158 166 156 145 134 127 112 97 94 88 72 73 73 62 59 51 45 39 44 31 17 18 19 17 24 36 29 341 352 10 9 9 1 12 13 11
164 164 163 168 161 159 161 157 162 154 143 136 132 124 111 94 73 54 47 62 60 68 66 58 52 51 40 15 24 19 19 16 10 13 350 350 2 357 19 359 356 354 354
165 168 170 165 155 159 157 151 145 138 141 138 126 120 113 102 73 56 32 45 53 60 71 77 81 77 62 44 37 19 15 10 2 359 354 4 1 7 358 337 350 338 331
168 169 167 163 157 160 156 151 142 137 124 124 127 123 118 102 85 63 39 21 28 64 74 95 117 102 78 54 49 44 40 28 10 2 356 358 346 354 341 339 345 348 327
168 163 163 162 159 163 163 154 152 149 148 149 140 126 117 112 100 72 27 349 350 35 99 115 71 84 84 60 350 332 338 327 332 354 355 334 331 340 343 330 324 321 291
169 165 164 164 160 159 161 162 162 157 161 159 147 132 130 140 137 108 349 303 288 331 25 85 99 82 37 26 333 309 284 280 277 274 280 298 312 326 317 307 302 315 311
170 168 166 164 160 161 168 170 168 166 162 163 162 155 150 160 169 171 232 280 253 240 68 56 79 92 36 19 1 332 319 307 298 266 265 275 290 300 305 334 334 340 322
172 169 164 161 161 166 172 169 166 165 165 167 168 164 164 167 178 182 196 259 264 249 146 103 80 90 45 18 348 323 320 315 324 309 286 280 271 275 281 248 262 298 309
161 159 157 157 161 164 166 166 165 166 165 171 169 170 171 167 172 180 182 204 265 277 251 162 154 131 54 317 314 289 289 304 309 303 296 291 285 275 267 257 254 239 271
152 152 153 156 163 164 160 167 169 165 170 180 178 180 178 165 164 188 197 213 266 284 280 238 167 198 250 277 277 277 293 308 298 297 297 294 293 292 286 290 284 272 259
147 152 155 157 160 158 160 167 171 175 182 189 182 185 185 172 173 186 201 214 229 245 264 225 225 232 251 264 263 274 282 277 277 281 279 274 269 268 286 299 297 285 284
150 153 155 157 159 162 167 173 177 182 187 190 191 190 184 171 169 181 201 216 224 241 260 252 245 241 245 259 270 266 250 250 257 263 271 275 279 275 270 267 272 281 286
158 157 160 162 160 162 162 170 177 182 180 180 188 180 174 187 195 178 181 196 204 215 228 237 239 245 250 256 259 257 253 259 262 266 272 277 279 275 273 272 266 276 276
166 166 163 157 156 160 158 146 121 159 167 170 171 173 179 180 177 175 185 197 207 204 199 228 238 242 244 247 253 258 253 254 259 263 265 269 274 274 275 275 268 267 272
165 163 159 160 163 167 168 168 169 114 124 185 188 181 182 186 186 192 196 203 217 197 209 235 240 243 246 248 250 250 252 253 251 257 263 269 272 274 276 276 273 271 272
168 163 157 160 168 174 178 179 179 182 194 216 213 199 192 194 198 199 188 172 217 210 224 235 242 247 248 250 253 255 259 261 257 257 261 268 271 273 275 274 272 271 273
168 162 159 163 169 176 182 185 190 196 197 188 178 201 204 200 206 205 183 198 219 227 230 235 239 244 250 250 252 254 254 256 261 260 262 265 266 269 270 270 269 274 275
168 165 161 167 173 180 186 194 199 201 203 196 195 188 168 162 197 202 204 218 226 233 232 232 236 237 242 247 249 250 255 256 259 260 263 266 266 268 272 272 271 271 269
156 162 165 172 177 183 193 204 203 202 208 210 201 184 173 189 205 209 211 221 228 236 236 236 237 237 236 240 247 250 251 254 255 260 265 269 270 271 270 268 269 268 270
155 161 176 183 181 189 199 205 206 211 212 207 196 187 180 192 209 212 217 223 227 231 231 233 241 245 239 238 239 248 257 259 259 262 270 272 272 271 271 269 271 272 273
159 163 172 177 178 182 197 204 209 214 212 206 197 186 188 205 211 219 229 232 230 228 228 233 247 264 283 273 263 254 258 264 269 274 273 275 273 273 272 270 271 275 274
166 173 170 168 176 189 208 220 218 219 220 220 209 203 197 203 210 221 231 236 229 239 243 255 261 272 286 300 293 287 286 293 297 290 281 273 273 271 270 272 272 273 275
177 181 182 184 182 184 205 223 232 233 230 234 233 224 210 200 205 215 237 238 244 250 260 278 289 292 299 308 315 311 308 313 314 310 297 285 271 268 269 272 274 278 278
173 171 176 182 183 182 188 210 231 248 248 234 210 219 216 197 199 218 236 266 275 270 270 289 301 312 319 320 316 321 325 326 324 317 306 294 279 275 277 274 275 275 276
Height
1558 1561 1562 1564 1565 1567 1567 1568 1569 1570 1570 1570 1570 1570 1570 1570 1570 1570 1569 1569 1569 1568 1568 1567 1567 1566 1566 1565 1564 1564 1563 1563 1562 1561 1560 1559 1557 1555 1553 1552 1549 1548 1546
1557 1559 1560 1562 1564 1565 1567 1568 1568 1569 1570 1570 1570 1570 1570 1570 1570 1570 1570 1569 1569 1569 1568 1567 1566 1566 1565 1564 1564 1563 1562 1562 1561 1560 1559 1558 1556 1555 1553 1551 1550 1548 1546
1555 1557 1559 1561 1562 1564 1565 1566 1567 1568 1569 1569 1569 1570 1570 1570 1570 1570 1570 1569 1569 1569 1568 1567 1566 1566 1565 1564 1563 1562 1562 1561 1560 1559 1558 1557 1556 1554 1552 1551 1549 1548 1546
1552 1555 1557 1559 1561 1562 1564 1565 1566 1567 1568 1568 1569 1569 1569 1569 1569 1569 1569 1569 1569 1568 1568 1567 1566 1565 1565 1564 1563 1562 1561 1560 1560 1559 1557 1556 1555 1553 1552 1550 1548 1547 1546
1550 1552 1555 1557 1559 1561 1562 1563 1565 1566 1567 1567 1567 1568 1568 1568 1568 1568 1568 1568 1568 1568 1567 1567 1566 1565 1564 1563 1563 1561 1561 1560 1559 1558 1557 1555 1554 1552 1551 1549 1548 1547 1545
1547 1549 1552 1554 1556 1558 1560 1561 1562 1563 1565 1566 1566 1566 1566 1567 1567 1567 1567 1567 1567 1567 1566 1566 1565 1564 1563 1563 1562 1561 1560 1559 1558 1557 1556 1554 1553 1552 1550 1549 1547 1545 1544
1544 1546 1549 1552 1553 1555 1557 1559 1560 1561 1562 1563 1564 1565 1565 1565 1566 1566 1566 1566 1566 1565 1565 1565 1564 1563 1562 1562 1561 1560 1559 1558 1558 1557 1555 1554 1552 1551 1549 1548 1546 1544 1543
1541 1543 1546 1548 1550 1552 1554 1556 1557 1559 1560 1561 1562 1563 1563 1563 1564 1564 1564 1564 1564 1564 1564 1563 1563 1562 1561 1560 1559 1558 1557 1557 1556 1555 1554 1552 1551 1550 1548 1547 1545 1543 1542
1538 1540 1542 1545 1547 1549 1551 1553 1555 1556 1557 1559 1560 1560 1561 1561 1562 1562 1563 1563 1562 1562 1562 1562 1561 1560 1560 1558 1557 1556 1555 1554 1554 1553 1552 1551 1549 1548 1547 1545 1543 1541 1539
1534 1536 1539 1541 1544 1546 1548 1550 1552 1554 1555 1556 1557 1558 1559 1559 1560 1560 1561 1560 1560 1560 1560 1559 1559 1558 1558 1556 1555 1554 1553 1552 1551 1550 1549 1548 1547 1546 1545 1543 1541 1540 1538
1531 1533 1536 1538 1541 1543 1545 1548 1549 1551 1553 1554 1555 1556 1556 1557 1557 1558 1558 1558 1558 1558 1557 1557 1556 1556 1555 1554 1553 1552 1551 1550 1549 1548 1547 1546 1544 1543 1542 1541 1539 1538 1536
1528 1530 1533 1535 1538 1540 1542 1545 1547 1549 1550 1551 1552 1553 1553 1554 1554 1555 1555 1555 1555 1555 1555 1554 1554 1553 1553 1552 1550 1549 1548 1547 1546 1545 1544 1543 1542 1541 1539 1538 1537 1535 1534
1525 1527 1530 1533 1535 1537 1539 1541 1543 1545 1547 1548 1549 1550 1550 1551 1551 1552 1552 1552 1552 1552 1552 1551 1551 1550 1550 1549 1548 1547 1546 1544 1543 1542 1541 1540 1539 1538 1536 1535 1533 1532 1530
1522 1525 1527 1530 1532 1534 1537 1538 1540 1542 1543 1545 1546 1546 1547 1548 1548 1548 1549 1549 1549 1548 1548 1548 1548 1547 1546 1545 1544 1543 1542 1541 1540 1539 1538 1537 1536 1534 1533 1531 1530 1528 1526
1520 1522 1525 1527 1529 1531 1533 1535 1537 1538 1540 1541 1542 1543 1544 1544 1545 1545 1546 1545 1545 1545 1545 1545 1544 1543 1543 1542 1541 1540 1539 1538 1537 1535 1534 1533 1532 1531 1529 1528 1526 1524 1522
1517 1520 1522 1524 1526 1528 1530 1532 1534 1536 1537 1538 1539 1540 1541 1542 1542 1542 1542 1542 1542 1542 1542 1541 1540 1540 1539 1538 1537 1536 1535 1534 1533 1532 1531 1529 1528 1526 1525 1524 1522 1520 1518
1515 1517 1519 1521 1522 1524 1526 1528 1529 1532 1533 1534 1535 1536 1537 1538 1538 1538 1538 1538 1538 1538 1538 1537 1536 1536 1535 1534 1534 1533 1531 1530 1529 1528 1527 1525 1524 1522 1521 1519 1517 1516 1514
1513 1514 1516 1517 1519 1521 1523 1524 1526 1527 1528 1529 1531 1532 1533 1533 1534 1534 1534 1534 1534 1533 1533 1532 1532 1532 1531 1530 1529 1528 1527 1526 1525 1524 1522 1521 1519 1518 1516 1514 1512 1511 1509
1510 1511 1513 1514 1516 1518 1520 1521 1522 1523 1524 1525 1526 1527 1528 1529 1529 1530 1529 1529 1528 1528 1528 1527 1527 1527 1526 1525 1525 1524 1523 1521 1520 1519 1517 1516 1514 1513 1511 1509 1507 1506 1504
1506 1508 1510 1511 1513 1515 1516 1517 1518 1519 1520 1521 1521 1522 1522 1523 1523 1524 1524 1524 1524 1523 1523 1522 1522 1521 1521 1520 1519 1518 1517 1516 1515 1514 1512 1510 1509 1507 1505 1504 1502 1500 1499
1503 1505 1506 1508 1510 1511 1512 1513 1514 1515 1516 1516 1517 1517 1518 1518 1518 1518 1519 1519 1518 1518 1518 1517 1517 1516 1515 1515 1514 1513 1512 1511 1510 1508 1507 1505 1503 1502 1500 1498 1496 1494 1493
1500 1502 1503 1505 1506 1507 1509 1510 1510 1511 1512 1512 1512 1513 1513 1513 1513 1513 1513 1513 1513 1513 1513 1512 1511 1511 1510 1509 1508 1508 1506 1505 1504 1503 1501 1499 1498 1496 1494 1492 1490 1488 1487
1497 1499 1500 1501 1503 1504 1505 1506 1506 1507 1507 1508 1508 1508 1508 1508 1508 1508 1509 1509 1508 1508 1507 1507 1506 1505 1505 1504 1503 1502 1501 1499 1498 1497 1495 1493 1491 1489 1488 1486 1484 1482 1481
1494 1496 1497 1498 1499 1500 1501 1501 1502 1502 1503 1503 1504 1504 1504 1504 1504 1504 1504 1504 1503 1503 1502 1502 1501 1500 1499 1498 1497 1496 1495 1494 1493 1491 1489 1487 1485 1483 1481 1479 1478 1476 1474
1491 1492 1493 1494 1495 1496 1497 1497 1498 1498 1498 1499 1499 1499 1499 1499 1499 1499 1499 1499 1498 1498 1497 1496 1496 1495 1494 1493 1492 1491 1489 1488 1486 1484 1482 1480 1478 1476 1474 1473 1471 1470 1468
1488 1489 1490 1491 1491 1492 1493 1493 1494 1494 1494 1494 1494 1494 1494 1494 1494 1494 1494 1494 1493 1493 1492 1491 1490 1489 1488 1487 1486 1485 1483 1481 1479 1477 1475 1473 1471 1469 1468 1466 1465 1463 1462